sat.trackr.live / text

‹ back to catalog

STARLINK-4451

NORAD 53492 · 2022-099AD

PAYLOAD ACTIVE UNKNOWN

§ Identity

Operator
Country
US
Launch date
2022-08-12
Launch site
AFWTR
Launch vehicle
Mass (kg)
RCS (m²)

Purposes: comms

External: N2YO · Heavens-Above · Gunter

§ Orbital elements

Epoch: 2026-09-20T03:25:35.995872Z

Period
88.29 min
Inclination
97.5891°
Eccentricity
0.0009832
Mean motion
16.30972232 rev/d
Perigee alt
183.5 km
Apogee alt
196.4 km
Semi-major
6,568.1 km
B*
5.3715e-4
RAAN
33.9281°
Arg perigee
296.5859°
Mean anomaly
63.4427°
Rev number
22,601

§ Raw data

STARLINK-44511 53492U 22099AD  26263.14277773  .02587559  26031-5  53715-3 0  99942 53492  97.5891  33.9281 0009832 296.5859  63.4427 16.30972232226018

JSON: /api/v1/satellites/53492 · /tle

For live sub-satellite position, see the globe view (requires WebGL).

§ Visibility from observer

Set your observer location to see the next 7 days of passes ≥ 10°. The values pass through the URL so the page stays shareable.

No JS? Fill the form by hand. The geolocation button needs JavaScript.